[[{"header":{"parameterUnit":"m.s-1","parameterCategory":1,"la1":30.2991,"la2":30.254,"lo1":-89.0895,"lo2":-89.0444,"dy":0.0017,"dx":0.0017,"nx":28,"ny":28,"refTime":"2023-10-04T21:00:00:Z","depth":0,"parameterNumber":2,"parameterNumberName":"U-component_of_WINDS"},"data":[0,0,0,0,0,0,0,0,0,0,0,0,0,0,0,0,0,0,0,0,0,0,0,0,0,0,0,0,0,0,0,0,0,0,0,0,0,0,0,0,0,0,0,0,0,0,0,0,0,0,0,0,0,0,0,0,0,0,-3.1574,-3.1573,0,-3.1543,-3.1542,-3.1542,-3.139,-3.1387,-3.1383,-3.138,-3.1351,-3.1354,-3.1356,0,0,0,0,0,0,0,0,0,0,0,0,0,-3.1505,-3.1508,-3.1574,-3.1573,-3.1573,-3.1543,-3.1542,-3.1542,-3.1391,-3.1387,-3.1382,-3.1378,-3.135,-3.1353,-3.1356,0,0,0,0,0,0,0,0,0,0,0,0,0,-3.1511,-3.1508,-3.1574,-3.1494,-3.1487,-3.1543,-3.1542,-3.1542,-3.1392,-3.1386,-3.1381,-3.1376,-3.1349,-3.1353,-3.1357,-3.1488,0,0,-3.1369,-3.137,0,0,0,0,0,0,0,0,-3.1511,-3.1514,-3.1506,-3.15,-3.1491,-3.1465,-3.1507,-3.1524,-3.1393,-3.1428,-3.138,-3.1373,-3.1393,-3.1393,-3.1399,-3.1487,-3.1486,-3.1369,-3.1371,-3.1373,-3.1374,0,0,0,0,0,0,0,-3.1511,-3.1514,-3.1561,-3.1506,-3.1497,-3.1461,-3.1455,-3.151,-3.1441,-3.1425,-3.1413,-3.1412,-3.1388,-3.1396,-3.1398,-3.1485,-3.1369,-3.1372,-3.1375,-3.1376,-3.1679,-3.1685,0,0,0,0,0,0,-3.1521,-3.1515,-3.1562,-3.156,-3.1488,-3.1466,-3.146,-3.1479,-3.144,-3.1429,-3.1416,-3.1405,-3.1392,-3.1393,-3.1396,-3.1548,-3.1373,-3.1376,-3.1379,-3.1674,-3.1681,-3.1687,0,0,0,0,0,0,-3.152,-3.1527,-3.1564,-3.1535,-3.1536,-3.1473,-3.1495,-3.1481,-3.1488,-3.1434,-3.1421,-3.1437,-3.1388,-3.1391,-3.1466,-3.1545,-3.1378,-3.1382,-3.1667,-3.1676,-3.1684,-3.1852,0,0,0,0,0,0,-3.1519,-3.1527,-3.1576,-3.1537,-3.1539,-3.1634,-3.15,-3.1484,-3.1495,-3.148,-3.145,-3.144,-3.1384,-3.1461,-3.147,-3.1547,-3.1385,-3.166,-3.1671,-3.1681,-3.184,-3.1866,-3.1888,0,0,0,0,0,-3.1517,-3.1626,-3.1579,-3.1586,-3.1598,-3.1639,-3.164,-3.1573,-3.1502,-3.1551,-3.1516,-3.1441,-3.1535,-3.147,-3.1479,-3.1558,-3.1655,-3.1668,-3.168,-3.1829,-3.1861,-3.1888,0,0,0,0,0,0,-3.1677,-3.1619,-3.1567,-3.1666,-3.1659,-3.1613,-3.1673,-3.1609,-3.1622,-3.1607,-3.1524,-3.1519,-3.1607,-3.159,-3.1519,-3.1684,-3.1582,-3.1597,-3.1692,-3.1721,-3.1745,-3.1748,-3.1388,0,0,0,0,0,-3.1724,-3.1761,-3.1708,-3.1801,-3.1799,-3.1737,-3.1753,-3.1701,-3.1691,-3.1687,-3.1657,-3.1651,-3.1679,-3.1699,-3.1721,-3.1836,-3.1828,-3.1895,-3.1919,-3.1939,-3.1954,-3.2014,-3.2043,-3.1729,-3.1729,-3.1729,0,0,-3.1821,-3.1793,-3.1822,-3.1832,-3.182,-3.1861,-3.1736,-3.1785,-3.1815,-3.1695,-3.1764,-3.1743,-3.173,-3.1826,-3.1866,-3.1814,-3.2038,-3.1956,-3.1972,-3.1976,-3.203,-3.206,-3.2086,-3.1738,-3.1737,-3.1735,0,0,-3.2018,-3.2001,-3.2076,-3.2067,-3.205,-3.2008,-3.2026,-3.1991,-3.1971,-3.204,-3.1951,-3.1986,-3.2035,-3.203,-3.2034,-3.223,-3.2161,-3.2239,-3.2366,-3.2426,-3.2451,-3.2472,-3.2543,-3.2569,-3.2254,-3.2254,-3.2255,0,-3.2141,-3.2199,-3.2123,-3.2178,-3.2185,-3.2077,-3.2153,-3.2148,-3.2141,-3.2149,-3.209,-3.215,-3.2133,-3.2227,-3.2275,-3.2281,-3.23,-3.2243,-3.2453,-3.2474,-3.2493,-3.2559,-3.2586,-3.2264,-3.2263,-3.2262,-3.2261,0,-3.2351,-3.2393,-3.2455,-3.2449,-3.2464,-3.2529,-3.2464,-3.2488,-3.2436,-3.24,-3.2472,-3.2448,-3.2464,-3.2483,-3.2432,-3.257,-3.2538,-3.2467,-3.2363,-3.2534,-3.2595,-3.262,-3.2278,-3.2274,-3.2271,-3.2269,0,0,-3.265,-3.26,-3.2625,-3.2621,-3.2594,-3.2625,-3.2686,-3.2701,-3.2723,-3.2721,-3.2771,-3.2815,-3.275,-3.2755,-3.2703,-3.2755,-3.2913,-3.2678,-3.2676,-3.2723,-3.3063,-3.3117,-3.3148,-3.2867,-3.2871,-3.2875,-3.3064,0,-3.2839,-3.2939,-3.2873,-3.2983,-3.3021,-3.2919,-3.2972,-3.2962,-3.2931,-3.2959,-3.2924,-3.2958,-3.2868,-3.2871,-3.2917,-3.2884,-3.298,-3.2869,-3.2913,-3.2916,-3.292,-3.3179,-3.3236,-3.3416,-3.3088,-3.3092,-3.3095,0,-3.3074,-3.3081,-3.3196,-3.3161,-3.3175,-3.3224,-3.3232,-3.326,-3.3247,-3.322,-3.3226,-3.316,-3.3218,-3.3116,-3.3195,-3.3122,-3.3136,-3.3122,-3.3127,-3.3129,-3.3016,-3.3189,-3.3472,-3.35,-3.3131,-3.3128,-3.3126,0,-3.3281,-3.3319,-3.3393,-3.3393,-3.3354,-3.3391,-3.3377,-3.3359,-3.3372,-3.3379,-3.3387,-3.3402,-3.3411,-3.3425,-3.3366,-3.3296,-3.3454,-3.3346,-3.3434,-3.3436,-3.3473,-3.3471,-3.3763,-3.3481,-3.3481,-3.348,-3.348,0,-3.35,-3.3574,-3.3485,-3.3531,-3.3611,-3.3535,-3.3617,-3.3592,-3.3577,-3.3616,-3.3529,-3.3569,-3.3488,-3.3519,-3.3474,-3.3547,-3.3552,-3.3533,-3.352,-3.3541,-3.3544,-3.355,-3.3536,-3.3487,-3.3486,-3.3485,-3.3483,0,-3.3745,-3.3688,-3.3762,-3.3719,-3.371,-3.3772,-3.3736,-3.3777,-3.3739,-3.379,-3.3798,-3.374,-3.3772,-3.3715,-3.374,-3.371,-3.3813,-3.378,-3.3817,-3.3807,-3.39,-3.3892,-3.4205,-3.4243,-3.3938,-3.394,-3.3943,0,-3.3889,-3.3943,-3.3906,-3.3926,-3.3916,-3.395,-3.3962,-3.3889,-3.3906,-3.3896,-3.3938,-3.3963,-3.3979,-3.4036,-3.3997,-3.4017,-3.3984,-3.4093,-3.3987,-3.4006,-3.3987,-3.3985,-3.399,-3.4115,-3.4119,-3.4122,-3.4124,0,-3.415,-3.4119,-3.414,-3.4152,-3.4169,-3.4175,-3.4175,-3.4196,-3.4119,-3.4143,-3.4174,-3.4187,-3.4213,-3.4239,-3.4249,-3.4235,-3.4168,-3.4158,-3.4179,-3.4202,-3.4221,-3.4213,-3.3877,-3.4151,-3.4148,-3.4146,-3.4145,-3.4144,-3.4349,-3.4393,-3.4374,-3.44,-3.4392,-3.4394,-3.443,-3.4397,-3.4421,-3.4436,-3.4391,-3.4434,-3.442,-3.4426,-3.442,-3.4452,-3.4404,-3.4436,-3.4444,-3.4453,-3.4468,-3.4216,-3.4454,-3.4453,-3.4452,-3.4452,-3.4451,0,-3.4606,-3.4589,-3.4614,-3.4616,-3.4637,-3.457,-3.4566,-3.4589,-3.4626,-3.4618,-3.4636,-3.4673,-3.4698,-3.4661,-3.468,-3.4713,-3.4683,-3.4721,-3.4718,-3.4716,-3.4509,-3.4489,-3.4745,-3.4745,-3.4745,-3.4745,-3.4745,-3.4745,-3.4743,-3.4813,-3.4781,-3.4847,-3.4828,-3.4868,-3.4872,-3.4874,-3.4867,-3.4911,-3.4931,-3.4906,-3.4887,-3.4904,-3.4925,-3.4913,-3.4925,-3.4974,-3.4952,-3.476,-3.4731,-3.4703,-3.4684,-3.4977,-3.4977,-3.5156,-3.5158,-3.5159]},{"header":{"parameterUnit":"m.s-1","parameterCategory":1,"la1":30.2991,"la2":30.254,"lo1":-89.0895,"lo2":-89.0444,"dy":0.0017,"dx":0.0017,"nx":28,"ny":28,"refTime":"2023-10-04T21:00:00:Z","depth":0,"parameterNumber":3,"parameterNumberName":"V-component_of_WINDS"},"data":[0,0,0,0,0,0,0,0,0,0,0,0,0,0,0,0,0,0,0,0,0,0,0,0,0,0,0,0,0,0,0,0,0,0,0,0,0,0,0,0,0,0,0,0,0,0,0,0,0,0,0,0,0,0,0,0,0,0,-1.0507,-1.0508,0,-1.059,-1.0591,-1.0592,-1.0678,-1.068,-1.0681,-1.0682,-1.0761,-1.0762,-1.0763,0,0,0,0,0,0,0,0,0,0,0,0,0,-1.0414,-1.0416,-1.0507,-1.0508,-1.0509,-1.059,-1.0591,-1.0593,-1.0678,-1.068,-1.0681,-1.0682,-1.076,-1.0762,-1.0763,0,0,0,0,0,0,0,0,0,0,0,0,0,-1.0472,-1.0416,-1.0506,-1.0561,-1.0567,-1.059,-1.0591,-1.0593,-1.0678,-1.068,-1.0681,-1.0683,-1.076,-1.0761,-1.0763,-1.0736,0,0,-1.0767,-1.0768,0,0,0,0,0,0,0,0,-1.0468,-1.0475,-1.0552,-1.0558,-1.0564,-1.0626,-1.0588,-1.0641,-1.0677,-1.0636,-1.0682,-1.0684,-1.0714,-1.0719,-1.0731,-1.074,-1.0743,-1.0768,-1.0768,-1.0769,-1.077,0,0,0,0,0,0,0,-1.0464,-1.0472,-1.054,-1.0553,-1.0561,-1.058,-1.059,-1.0598,-1.0663,-1.0639,-1.0646,-1.0655,-1.0718,-1.0729,-1.0733,-1.0744,-1.0768,-1.0769,-1.077,-1.077,-1.0733,-1.0732,0,0,0,0,0,0,-1.0453,-1.0468,-1.0537,-1.0542,-1.052,-1.058,-1.0591,-1.0604,-1.0664,-1.0675,-1.0653,-1.0659,-1.0726,-1.0732,-1.0736,-1.0707,-1.0769,-1.077,-1.0771,-1.0735,-1.0733,-1.0731,0,0,0,0,0,0,-1.045,-1.0458,-1.0534,-1.0507,-1.0518,-1.058,-1.0593,-1.0605,-1.0617,-1.0674,-1.0686,-1.0654,-1.0728,-1.0734,-1.0736,-1.0711,-1.0771,-1.0772,-1.0738,-1.0735,-1.0732,-1.0649,0,0,0,0,0,0,-1.0447,-1.0457,-1.0449,-1.0506,-1.0519,-1.0533,-1.0592,-1.0605,-1.062,-1.0628,-1.0678,-1.0688,-1.0729,-1.0733,-1.0737,-1.0714,-1.0774,-1.074,-1.0736,-1.0733,-1.0654,-1.0643,-1.0634,0,0,0,0,0,-1.0444,-1.0421,-1.0448,-1.0456,-1.0511,-1.0531,-1.0538,-1.0589,-1.0618,-1.0609,-1.0646,-1.0686,-1.0714,-1.0732,-1.0738,-1.0715,-1.0742,-1.0737,-1.0733,-1.0658,-1.0645,-1.0635,0,0,0,0,0,0,-1.0356,-1.0429,-1.046,-1.0455,-1.0487,-1.0546,-1.0536,-1.0574,-1.0596,-1.0602,-1.0662,-1.0673,-1.0666,-1.0691,-1.0711,-1.0691,-1.0733,-1.073,-1.0674,-1.0663,-1.0653,-1.0645,-1.0775,0,0,0,0,0,-1.0337,-1.035,-1.0412,-1.0402,-1.0416,-1.0473,-1.0484,-1.0521,-1.0555,-1.0568,-1.0605,-1.0634,-1.065,-1.0658,-1.0676,-1.0659,-1.067,-1.0646,-1.0636,-1.0628,-1.0623,-1.0614,-1.0603,-1.0717,-1.0717,-1.0717,0,0,-1.0295,-1.0337,-1.0341,-1.0385,-1.0414,-1.0423,-1.0484,-1.0492,-1.0498,-1.0568,-1.0571,-1.06,-1.0637,-1.0628,-1.0626,-1.0649,-1.0595,-1.0623,-1.0616,-1.0615,-1.0608,-1.0597,-1.0588,-1.0714,-1.0715,-1.0715,0,0,-1.0224,-1.0259,-1.0253,-1.0281,-1.0325,-1.0363,-1.0362,-1.0416,-1.0437,-1.0443,-1.0495,-1.0503,-1.0529,-1.0553,-1.0568,-1.0507,-1.0544,-1.0511,-1.0459,-1.0449,-1.044,-1.0432,-1.0407,-1.0398,-1.0507,-1.0507,-1.0507,0,-1.0167,-1.0186,-1.0245,-1.0249,-1.0266,-1.0333,-1.0326,-1.035,-1.0395,-1.0404,-1.043,-1.0463,-1.0493,-1.049,-1.0475,-1.0486,-1.0484,-1.0504,-1.0437,-1.043,-1.0423,-1.04,-1.0391,-1.0502,-1.0503,-1.0503,-1.0504,0,-1.0111,-1.0123,-1.0113,-1.0158,-1.0174,-1.0172,-1.0229,-1.0238,-1.0273,-1.0308,-1.0311,-1.035,-1.0375,-1.0378,-1.0412,-1.0379,-1.0392,-1.0427,-1.0469,-1.0407,-1.0386,-1.0378,-1.0496,-1.0498,-1.0499,-1.05,0,0,-0.9984,-1.0063,-1.0058,-1.0078,-1.0132,-1.0141,-1.0143,-1.017,-1.0175,-1.0205,-1.0205,-1.0226,-1.0259,-1.0276,-1.0314,-1.0306,-1.0251,-1.0341,-1.0343,-1.032,-1.0214,-1.0184,-1.0173,-1.0278,-1.0277,-1.0276,-1.021,0,-0.9919,-0.9927,-0.9981,-0.9972,-0.9982,-1.0047,-1.0048,-1.0079,-1.0112,-1.0124,-1.0161,-1.0173,-1.0217,-1.0227,-1.0223,-1.0259,-1.023,-1.0265,-1.0275,-1.0275,-1.026,-1.0163,-1.0132,-1.0068,-1.0202,-1.0201,-1.02,0,-0.9844,-0.9872,-0.9864,-0.9918,-0.9924,-0.9924,-0.9953,-0.9965,-1.0001,-1.0026,-1.0046,-1.0089,-1.0092,-1.0135,-1.0137,-1.016,-1.0168,-1.0186,-1.0185,-1.0184,-1.023,-1.0156,-1.0049,-1.0037,-1.0188,-1.0189,-1.019,0,-0.9748,-0.9783,-0.9783,-0.9799,-0.9862,-0.986,-0.9886,-0.9925,-0.9938,-0.9963,-0.9971,-0.9995,-1.0007,-1.0024,-1.0072,-1.01,-1.0067,-1.0115,-1.0085,-1.0083,-1.0071,-1.007,-0.996,-1.0083,-1.0083,-1.0083,-1.0083,0,-0.9668,-0.9659,-0.974,-0.9739,-0.9732,-0.9794,-0.9784,-0.9815,-0.985,-0.9854,-0.9913,-0.9915,-0.998,-0.999,-1.0027,-1.0022,-1.0028,-1.0045,-1.0054,-1.0038,-1.0035,-1.004,-1.0044,-1.0081,-1.0081,-1.0082,-1.0082,0,-0.9556,-0.9611,-0.9614,-0.9675,-0.969,-0.9681,-0.9732,-0.9732,-0.977,-0.9775,-0.978,-0.9838,-0.9853,-0.9903,-0.993,-0.9955,-0.9936,-0.9957,-0.9923,-0.9929,-0.9893,-0.9894,-0.9779,-0.9765,-0.9901,-0.9899,-0.9898,0,-0.9499,-0.9495,-0.9556,-0.9565,-0.9588,-0.9602,-0.9616,-0.9676,-0.9688,-0.973,-0.9724,-0.9744,-0.9762,-0.9782,-0.9824,-0.9844,-0.9864,-0.9822,-0.9867,-0.9849,-0.9858,-0.9856,-0.9854,-0.981,-0.9809,-0.9807,-0.9806,0,-0.9391,-0.9419,-0.9438,-0.9466,-0.9482,-0.9507,-0.9534,-0.9538,-0.9605,-0.9615,-0.9631,-0.9646,-0.9674,-0.9691,-0.9718,-0.9743,-0.9783,-0.9793,-0.9786,-0.9766,-0.9745,-0.9752,-0.9892,-0.9794,-0.9795,-0.9796,-0.9797,-0.9797,-0.9303,-0.9302,-0.9344,-0.9363,-0.9391,-0.9416,-0.9419,-0.9459,-0.9474,-0.9503,-0.9538,-0.9549,-0.9585,-0.9627,-0.9648,-0.9656,-0.9679,-0.967,-0.9667,-0.9663,-0.9653,-0.9748,-0.9662,-0.9662,-0.9663,-0.9663,-0.9663,0,-0.9195,-0.9226,-0.9243,-0.9281,-0.9296,-0.9338,-0.9371,-0.9379,-0.9389,-0.9421,-0.9439,-0.9457,-0.9474,-0.952,-0.9541,-0.9538,-0.9558,-0.9541,-0.954,-0.9544,-0.9633,-0.9635,-0.9525,-0.9525,-0.9525,-0.9525,-0.9525,-0.9525,-0.9139,-0.9138,-0.9171,-0.9184,-0.9215,-0.9228,-0.9243,-0.9265,-0.9291,-0.9309,-0.9325,-0.9356,-0.9392,-0.9416,-0.9433,-0.9446,-0.9449,-0.9426,-0.9444,-0.9525,-0.9538,-0.9551,-0.9552,-0.9427,-0.9427,-0.9354,-0.9353,-0.9353]}]]